Find Local Weather

World > North America > United States > Ohio

Edenton, Ohio Regional Weather

Lat: 39.23N, Lon: 84.05W
Wx Zone: OHZ078
Warning FLW WEATHER ALERT - (More Info. Click Here) Warning
Feedback

Edenton, OH Regional Weather

Expires:201905270000;;512561
ASUS41 KCLE 262302
RWRCLE
OHIO REGIONAL WEATHER ROUNDUP
NATIONAL WEATHER SERVICE CLEVELAND, OH
700 PM EDT SUN MAY 26 2019

NOTE: "FAIR" INDICATES FEW OR NO CLOUDS BELOW 12,000 FEET WITH NO
SIGNIFICANT WEATHER AND/OR OBSTRUCTIONS TO VISIBILITY.


OHZ042-051>053-060>062-070>072-077>081-270000-
  SOUTHWEST OHIO
  
CITY           SKY/WX    TMP DP  RH WIND       PRES   REMARKS
CINC-COVINGTON PTSUNNY   73  65  75 SW10      30.01F                  
CINC-LUNKEN    FAIR      74  67  78 SW7       30.00F                  
HAMILTON       FAIR      75  66  73 W13G21    30.00F                  
DAYTON         PTSUNNY   78  61  55 N10       30.02S                  
WRIGHT-PAT AFB NOT AVBL                                               
DAYTON GENERAL CLOUDY    75  66  73 S9        30.00S                  
WILMINGTON     CLOUDY    69  67  93 SW7       30.00F                  
$$


SKY/WX - Weather  TMP - Temperature  DP - Dew Point  RH - Relative Humidity
WIND - Wind Direction/Speed PRES - Barometric Pressure VSB - Visibility
WCI - Wind Chill Index E13G22 Wind - East Wind 13 mph/Gusts of 22 mph